Location: Pic du Midi - T1M
(42.9366°N, 0.1426°E)
Time: 17:55:09
(UTC+01:00)

Nauka - Pass Details

Date: 04 October 2021
Orbit: 417 x 423 km, 51.6° (Epoch: 24 October)

Event Time Altitude Azimuth Distance (km) Brightness Sun altitude
Rises 20:07:12 0° 299° (WNW) 2,357 ? -17.6°
Reaches altitude 10° 20:09:21 10° 293° (WNW) 1,492 ? -18.0°
Maximum altitude 20:12:33 45° 220° (SW) 581 ? -18.6°
Enters shadow 20:13:29 34° 175° (S) 705 ? -18.7°
